Regional Weather Roundup
Issued by NWS

Home | Current Version | Previous Version | Graphics & Text | Print | Product List | Glossary On
Versions: 1 2 3 4 5 6 7 8 9 10 11 12 13 14 15 16 17 18 19 20 21 22 23 24 25 26 27 28 29 30 31 32 33 34 35 36 37 38 39 40 41 42 43 44 45 46 47 48 49 50
000
ASUS43 KDMX 200806
RWRIA

WEATHER ROUNDUP FOR IOWA
NATIONAL WEATHER SERVICE DES MOINES IA
200 AM CST FRI JAN 20 2017

NOTE: "FAIR" INDICATES FEW OR NO CLOUDS BELOW 12,000 FEET WITH NO
SIGNIFICANT WEATHER AND/OR OBSTRUCTIONS TO VISIBILITY.

* - THESE STATIONS ARE NOT NWS STATIONS...THUS NOT UNDER NWS
QUALITY CONTROL.  THEY ALSO DO NOT REPORT WEATHER SUCH
AS PRECIPITATION OR FOG.

IAZ001>003-012>014-020>022-031>034-043>046-200900-
   NORTHWEST IOWA

CITY           SKY/WX    TMP DP  RH WIND       PRES   REMARKS
CARROLL *      CLOUDY    36  36 100 CALM      29.59R FOG
CHEROKEE *     CLOUDY    35  35 100 CALM      29.58F FOG
DENISON *      FOG       37  37 100 SW3       29.58R VSB 1
LE MARS *      FOG       37  37 100 CALM      29.59F VSB 1/2
ORANGE CITY *  FOG       36  36 100 SW5       29.58S VSB 1/4 WCI  32
SHELDON *      FOG       36  36 100 S5        29.56F VSB 1/4 WCI  32
SIOUX CITY     FOG       38  37  97 SE6       29.59S VSB 1/2 WCI  33
SPENCER        FOG       34  34 100 SW5       29.58S VSB 1/2 WCI  30
STORM LAKE *   FOG       34  34 100 SW7       29.57S VSB 1/4 WCI  28
$$

IAZ055>058-069>071-079>083-090>094-200900-
   SOUTHWEST IOWA

CITY           SKY/WX    TMP DP  RH WIND       PRES   REMARKS
ATLANTIC *     FOG       37  36  93 CALM      29.59S VSB 3/4
AUDUBON *      FOG       36  34  93 CALM      29.59S VSB 1/2
CLARINDA *     FOG       37  37 100 CALM      29.62S VSB 1/4
COUNCIL BLFS * FOG       37  37 100 SE5       29.59S VSB 1/4 WCI  34
CRESTON *      FOG       37  37 100 SE5       29.61S VSB 1/4 WCI  34
HARLAN  *      FOG       37  37 100 CALM      29.62S VSB 1/4
LAMONI         FOG       38  37  97 NE3       29.60F VSB 3/4
RED OAK *      FOG       37  37 100 CALM      29.60S VSB 1/4
SHENANDOAH *   FOG       37  37 100 NE3       29.61S VSB 1/2
$$

IAZ047>049-059>061-072>074-084-200900-
   CENTRAL IOWA

CITY           SKY/WX    TMP DP  RH WIND       PRES   REMARKS
AMES           FOG       35  35 100 CALM      29.61R VSB 1/4
ANKENY *       FOG       36  36 100 CALM      29.63R VSB 1/4
BOONE *        FOG       34  34 100 CALM      29.59S VSB 1/4
CHARITON *     FOG       36  36 100 CALM      29.61S VSB<1/4
DES MOINES     DRZL/FOG  37  36  96 SE3       29.61S VSB 1/2
GRINNELL*      FOG       35  35  99 E5        29.63R VSB 1/2 WCI  31
KNOXVILLE *    FOG       36  36 100 CALM      29.61R VSB 1/4
MARSHALLTOWN   FOG       35  35 100 E7        29.61S VSB 1/2 WCI  29
NEWTON *       FOG       36  36 100 E5        29.62R VSB 1/4 WCI  32
PELLA *        FOG       37  36  98 CALM      29.64R VSB 1/2
PERRY *        FOG       35  34  97 SE5       29.60S VSB 1/2 WCI  31
$$

IAZ004>006-015-016-023>025-035-036-200900-
   NORTH CENTRAL IOWA

CITY           SKY/WX    TMP DP  RH WIND       PRES   REMARKS
ALGONA *       FOG       34  34 100 SE7       29.59S VSB 1/4 WCI  28
CLARION *      FOG       36  36 100 SE7       29.60S VSB 1/2 WCI  30
ESTHERVILLE    FOG       32  32 100 SE3       29.58S VSB 1/4
FORT DODGE *   CLOUDY    34  34 100 E7        29.60S VSB 1/2 WCI  28
MASON CITY     FOG       33  33 100 E10       29.63R VSB 1   WCI  25
FOREST CITY *  CLOUDY    34  34 100 E7        29.61R FOG     WCI  28
WEBSTER CITY * FOG       34  34 100 SE5       29.58S VSB 1/4 WCI  30
IOWA FALLS *   FOG       35  34  97 E6        29.62R VSB 1/2 WCI  30
$$

IAZ007>011-017>019-026>030-037>042-050>054-066-200900-
   NORTHEAST IOWA

CITY           SKY/WX    TMP DP  RH WIND       PRES   REMARKS
CEDAR RAPIDS   FOG       35  35 100 E5        29.63R VSB 3/4 WCI  31
CHARLES CITY * FOG       34  34 100 E9        29.64S VSB 3/4 WCI  26
CLINTON *      FOG       36  36 100 E7        29.64F VSB 1/2 WCI  30
DECORAH *      CLOUDY    34  34 100 E7        29.64S FOG     WCI  28
DUBUQUE        FOG       36  36 100 NE6       29.64S VSB 1/2 WCI  31
MONTICELLO *   FOG       36  36 100 NE3       29.64S VSB 1/2
OELWEIN *      CLOUDY    34  34 100 E7        29.64S FOG     WCI  28
WATERLOO       CLOUDY    34  34 100 E6        29.63F FOG     WCI  29
$$

IAZ064-065-067-068-078-200900-
   EAST CENTRAL IOWA

CITY           SKY/WX    TMP DP  RH WIND       PRES   REMARKS
DAVENPORT      FOG       36  35  96 E6        29.64S VSB 1/4 WCI  31
IOWA CITY      CLOUDY    37  36  96 NE3       29.65S FOG
MUSCATINE *    FOG       37  36  93 N5        29.64S VSB 1/4 WCI  34
QUAD CITIES    FOG       38  36  92 NE3       29.62F VSB 1/4
$$

IAZ062-063-075>077-085>089-095>099-200900-
   SOUTHEAST IOWA

CITY           SKY/WX    TMP DP  RH WIND       PRES   REMARKS
BURLINGTON     FOG       38  38 100 CALM      29.61F VSB 1/4
FAIRFIELD *    FOG       37  37 100 CALM      29.62S VSB 1/4
FORT MADISON * FOG       37  37 100 CALM      29.63S VSB 1/4
KEOKUK *       FOG       39  39 100 NW5       29.62R VSB 1/4
OSKALOOSA *    DRZL/FOG  36  36  99 CALM      29.63R VSB 1/2
OTTUMWA        FOG       37  37 100 CALM      29.62R VSB 1/4
WASHINGTON *   FOG       36  36 100 E3        29.63F VSB 1/4
$$

ABBREVIATIONS USED IN REMARKS
   TC - TEMPERATURES IN CELSIUS
  WCI - WIND CHILL INDEX
   HX - HEAT INDEX
  VSB - VISIBILITY
$$





USA.gov is the U.S. government's official web portal to all federal, state and local government web resources and services.